DW5657 Weather Reports


Display with metric or nautical units.
time (UTC)temp
F
wind
direction
speed
MPH
gust
MPH
rain 1hr
in
rain 24hr
in
rain mn
in
humidity
%
barometer
mb
20260901115203 76 38 0.0 0.0 0.00 0.00 0.00 83 1017.1
20260901113204 75 46 0.0 0.0 0.00 0.00 0.00 83 1016.8
20260901112704 75 46 0.0 0.0 0.00 0.00 0.00 83 1016.7
20260901112203 75 48 0.0 3.0 0.00 0.00 0.00 83 1016.7
20260901111703 75 49 1.0 3.0 0.00 0.00 0.00 83 1016.6
20260901111204 75 48 0.0 0.0 0.00 0.00 0.00 83 1016.5
20260901110703 75 46 0.0 0.0 0.00 0.00 0.00 83 1016.5
20260901110203 75 46 0.0 0.0 0.00 0.00 0.00 83 1016.5
20260901105704 75 46 0.0 0.0 0.00 0.00 0.00 83 1016.5
20260901105203 75 46 0.0 0.0 0.00 0.00 0.00 83 1016.5
20260901104704 75 47 0.0 0.0 0.00 0.00 0.00 83 1016.4
20260901104204 75 46 0.0 1.0 0.00 0.00 0.00 84 1016.4
20260901103705 75 46 0.0 0.0 0.00 0.00 0.00 84 1016.4
20260901103203 75 46 0.0 2.0 0.00 0.00 0.00 84 1016.4
20260901102704 75 46 0.0 2.0 0.00 0.00 0.00 84 1016.3
20260901102203 75 38 0.0 0.0 0.00 0.00 0.00 84 1016.2
20260901101703 75 38 0.0 0.0 0.00 0.00 0.00 84 1016.3
20260901100705 75 38 0.0 0.0 0.00 0.00 0.00 84 1016.2
20260901100204 75 39 0.0 0.0 0.00 0.00 0.00 84 1016.2
20260901095705 75 38 0.0 0.0 0.00 0.00 0.00 84 1016.2
20260901095203 75 40 0.0 0.0 0.00 0.00 0.00 84 1016.2
20260901094704 75 40 0.0 0.0 0.00 0.00 0.00 84 1016.2
20260901093704 75 40 0.0 0.0 0.00 0.00 0.00 84 1016.0
20260901092704 75 40 0.0 0.0 0.00 0.00 0.00 83 1016.0
20260901091704 75 41 0.0 0.0 0.00 0.00 0.00 82 1016.0
20260901091204 76 41 0.0 0.0 0.00 0.00 0.00 82 1016.0
20260901090703 76 42 0.0 0.0 0.00 0.00 0.00 82 1015.9
20260901085704 76 44 0.0 0.0 0.00 0.00 0.00 82 1015.8
20260901085204 76 44 0.0 0.0 0.00 0.00 0.00 82 1015.8
20260901084703 76 44 0.0 0.0 0.00 0.00 0.00 82 1015.7
20260901084203 76 43 0.0 0.0 0.00 0.00 0.00 82 1015.7
20260901083703 76 42 0.0 0.0 0.00 0.00 0.00 82 1015.7
20260901083203 76 41 0.0 0.0 0.00 0.00 0.00 83 1015.6
20260901082703 76 42 0.0 0.0 0.00 0.00 0.00 83 1015.6
20260901081703 76 43 0.0 0.0 0.00 0.00 0.00 82 1015.6
20260901081204 77 43 0.0 0.0 0.00 0.00 0.00 82 1015.7
20260901080703 77 44 0.0 0.0 0.00 0.00 0.00 82 1015.7
20260901075704 77 42 0.0 0.0 0.00 0.00 0.00 81 1015.7
20260901075204 77 40 0.0 0.0 0.00 0.00 0.00 81 1015.7
20260901074704 77 39 0.0 0.0 0.00 0.00 0.00 81 1015.5
20260901074204 78 38 0.0 0.0 0.00 0.00 0.00 80 1015.5
20260901073703 78 40 0.0 0.0 0.00 0.00 0.00 80 1015.5
20260901073205 78 39 0.0 0.0 0.00 0.00 0.00 80 1015.4
20260901072704 78 36 0.0 0.0 0.00 0.00 0.00 80 1015.4
20260901071704 78 33 0.0 0.0 0.00 0.00 0.00 80 1015.3
20260901071203 78 33 0.0 0.0 0.00 0.00 0.00 80 1015.3
20260901070704 78 33 0.0 0.0 0.00 0.00 0.00 79 1015.4
20260901070203 78 32 0.0 0.0 0.00 0.00 0.00 80 1015.4
20260901065704 79 33 0.0 0.0 0.00 0.00 0.00 79 1015.3
20260901065203 79 33 0.0 0.0 0.00 0.00 0.00 79 1015.3
20260901064704 79 34 0.0 3.0 0.00 0.00 0.00 79 1015.3
20260901064203 79 41 0.0 3.0 0.00 0.00 0.00 79 1015.2
20260901063205 79 41 0.0 2.0 0.00 0.00 0.00 79 1014.9
20260901062704 79 41 0.0 2.0 0.00 0.00 0.00 79 1015.0
20260901062204 79 44 0.0 0.0 0.00 0.00 0.00 79 1015.0
20260901061703 79 43 0.0 0.0 0.00 0.00 0.00 79 1015.0
20260901061204 79 39 0.0 0.0 0.00 0.00 0.00 79 1015.0
20260901060704 80 41 0.0 2.0 0.00 0.00 0.00 78 1015.0
20260901060205 80 41 0.0 2.0 0.00 0.00 0.00 78 1015.0
20260901055703 80 43 0.0 0.0 0.00 0.00 0.00 78 1015.2
20260901055203 80 43 0.0 2.0 0.00 0.00 0.00 78 1015.3
20260901054704 80 41 0.0 2.0 0.00 0.00 0.00 78 1015.4
20260901054203 80 38 0.0 1.0 0.00 0.00 0.00 78 1015.4
20260901053704 80 33 0.0 1.0 0.00 0.00 0.00 78 1015.5
20260901053205 80 31 0.0 1.0 0.00 0.00 0.00 78 1015.6
20260901052703 80 23 0.0 2.0 0.00 0.00 0.00 77 1015.6
20260901052205 80 38 0.0 2.0 0.00 0.00 0.00 77 1015.6
20260901051703 80 34 0.0 0.0 0.00 0.00 0.00 77 1015.5
20260901050705 81 30 0.0 1.0 0.00 0.00 0.00 77 1015.6
20260901044704 81 34 0.0 0.0 0.00 0.00 0.00 76 1015.8
20260901044204 81 32 0.0 0.0 0.00 0.00 0.00 76 1016.0
20260901043703 81 33 0.0 0.0 0.00 0.00 0.00 76 1016.0
20260901043203 81 34 0.0 0.0 0.00 0.00 0.00 76 1016.0
20260901042704 81 35 0.0 1.0 0.00 0.00 0.00 76 1016.1
20260901042204 81 35 0.0 0.0 0.00 0.00 0.00 76 1016.1
20260901041703 81 35 0.0 0.0 0.00 0.00 0.00 75 1016.1
20260901041204 81 34 0.0 1.0 0.00 0.00 0.00 76 1016.2
20260901040703 81 35 0.0 2.0 0.00 0.00 0.00 76 1016.2
20260901040205 81 35 0.0 0.0 0.00 0.00 0.00 76 1016.1
20260901035703 81 34 0.0 1.0 0.00 0.00 0.00 76 1016.1
20260901035203 81 34 0.0 1.0 0.00 0.00 0.00 75 1016.1
20260901034703 81 33 0.0 0.0 0.00 0.00 0.00 75 1016.1
20260901034203 81 33 0.0 0.0 0.00 0.00 0.00 75 1016.1
20260901033703 81 32 0.0 0.0 0.00 0.00 0.00 75 1016.2
20260901032704 81 32 0.0 0.0 0.00 0.00 0.00 75 1016.2
20260901032204 81 32 0.0 0.0 0.00 0.00 0.00 75 1016.3
20260901031703 81 31 0.0 0.0 0.00 0.00 0.00 75 1016.3
20260901030704 81 34 0.0 0.0 0.00 0.00 0.00 74 1016.3
20260901025704 82 37 0.0 0.0 0.00 0.00 0.00 73 1016.3
20260901025204 82 34 0.0 0.0 0.00 0.00 0.00 72 1016.3
20260901024704 82 37 0.0 0.0 0.00 0.00 0.00 72 1016.3
20260901023704 82 34 0.0 0.0 0.00 0.00 0.00 72 1016.4
20260901023204 82 34 0.0 0.0 0.00 0.00 0.00 72 1016.4
20260901022705 82 34 0.0 0.0 0.00 0.00 0.00 72 1016.4
20260901022204 82 35 0.0 0.0 0.00 0.00 0.00 72 1016.3
20260901021704 83 35 0.0 0.0 0.00 0.00 0.00 71 1016.3
20260901021203 83 36 0.0 0.0 0.00 0.00 0.00 71 1016.4
20260901020703 83 37 0.0 0.0 0.00 0.00 0.00 71 1016.3
20260901020203 83 36 0.0 0.0 0.00 0.00 0.00 71 1016.3
20260901015204 83 34 0.0 0.0 0.00 0.00 0.00 70 1016.3
20260901014703 84 33 0.0 0.0 0.00 0.00 0.00 70 1016.3
20260901014204 84 32 0.0 0.0 0.00 0.00 0.00 70 1016.2
20260901012704 85 32 0.0 0.0 0.00 0.00 0.00 69 1016.0
20260901012204 85 34 0.0 0.0 0.00 0.00 0.00 68 1016.1
20260901011705 85 34 0.0 0.0 0.00 0.00 0.00 68 1016.0
20260901011203 86 36 0.0 0.0 0.00 0.00 0.00 68 1016.1
20260901010703 86 39 0.0 0.0 0.00 0.00 0.00 67 1015.9
20260901010204 86 41 0.0 0.0 0.00 0.00 0.00 66 1016.0
20260901005704 87 45 0.0 0.0 0.00 0.00 0.00 66 1015.9
20260901005204 87 51 0.0 0.0 0.00 0.00 0.00 66 1015.8
20260901004204 87 59 0.0 0.0 0.00 0.00 0.00 65 1015.7
20260901003704 88 73 0.0 0.0 0.00 0.00 0.00 64 1015.5
20260901003204 88 77 0.0 0.0 0.00 0.00 0.00 64 1015.5
20260901002703 88 84 0.0 0.0 0.00 0.00 0.00 64 1015.5
20260901002203 88 87 0.0 0.0 0.00 0.00 0.00 64 1015.4
20260901001704 88 91 0.0 0.0 0.00 0.00 0.00 63 1015.3
20260901001204 88 217 0.0 2.0 0.00 0.00 0.00 63 1015.3
20260901000704 89 218 0.0 2.0 0.00 0.00 0.00 63 1015.2
20260901000204 89 220 0.0 3.0 0.00 0.00 0.00 62 1015.2
20260831235704 89 212 1.0 5.0 0.00 0.00 0.00 62 1015.1
20260831235203 89 218 3.0 7.0 0.00 0.00 0.00 62 1015.1
20260831234703 89 209 1.0 3.0 0.00 0.00 0.00 62 1015.0
20260831233705 89 206 2.0 6.0 0.00 0.00 0.00 61 1014.9
20260831233204 89 220 5.0 9.0 0.00 0.00 0.00 61 1014.8
20260831232703 90 237 3.0 6.0 0.00 0.00 0.00 61 1014.7
20260831232204 90 225 2.0 5.0 0.00 0.00 0.00 61 1014.7
20260831231703 90 212 2.0 5.0 0.00 0.00 0.00 60 1014.6
20260831231203 90 215 3.0 8.0 0.00 0.00 0.00 59 1014.6
20260831230204 90 217 4.0 8.0 0.00 0.00 0.00 58 1014.6
20260831225703 91 217 5.0 10.0 0.00 0.00 0.00 57 1014.6
20260831225203 91 214 3.0 7.0 0.00 0.00 0.00 57 1014.6
20260831224704 91 218 3.0 8.0 0.00 0.00 0.00 57 1014.7
20260831224204 92 223 4.0 10.0 0.00 0.00 0.00 56 1014.7
20260831223704 92 221 4.0 10.0 0.00 0.00 0.00 56 1014.8
20260831223203 92 195 5.0 10.0 0.00 0.00 0.00 55 1014.9
20260831222703 93 209 3.0 6.0 0.00 0.00 0.00 55 1014.9
20260831221705 93 218 5.0 8.0 0.00 0.00 0.00 54 1015.1
20260831220703 93 171 4.0 9.0 0.00 0.00 0.00 53 1015.3
20260831220204 93 216 2.0 9.0 0.00 0.00 0.00 53 1015.4
20260831215704 93 217 2.0 6.0 0.00 0.00 0.00 53 1015.4
20260831215205 93 204 4.0 7.0 0.00 0.00 0.00 53 1015.5
20260831214704 94 204 3.0 8.0 0.00 0.00 0.00 52 1015.5
20260831214204 94 222 2.0 5.0 0.00 0.00 0.00 53 1015.4
20260831213705 94 249 3.0 6.0 0.00 0.00 0.00 52 1015.5
20260831213205 94 227 2.0 5.0 0.00 0.00 0.00 52 1015.7
20260831212703 94 204 3.0 6.0 0.00 0.00 0.00 53 1015.7
20260831212203 93 207 2.0 6.0 0.00 0.00 0.00 52 1015.7
20260831211704 93 224 2.0 6.0 0.00 0.00 0.00 52 1015.6
20260831210704 93 225 1.0 5.0 0.00 0.00 0.00 53 1015.7
20260831205705 93 224 1.0 7.0 0.00 0.00 0.00 53 1015.9
20260831205203 93 222 2.0 7.0 0.00 0.00 0.00 52 1015.9
20260831204704 93 250 2.0 6.0 0.00 0.00 0.00 52 1015.9
20260831204203 93 221 1.0 5.0 0.00 0.00 0.00 52 1016.0
20260831203704 92 331 3.0 9.0 0.00 0.00 0.00 52 1016.0
20260831203205 92 235 2.0 5.0 0.00 0.00 0.00 53 1016.1
20260831202704 92 228 2.0 6.0 0.00 0.00 0.00 53 1016.2
20260831201204 92 261 3.0 8.0 0.00 0.00 0.00 53 1016.2
20260831200704 92 230 2.0 8.0 0.00 0.00 0.00 56 1016.3
20260831200204 92 212 1.0 8.0 0.00 0.00 0.00 56 1016.4
20260831195704 92 240 2.0 3.0 0.00 0.00 0.00 55 1016.5
20260831195204 91 293 3.0 8.0 0.00 0.00 0.00 55 1016.7
20260831194705 91 246 3.0 8.0 0.00 0.00 0.00 55 1016.7
20260831194204 91 295 4.0 9.0 0.00 0.00 0.00 55 1016.8
20260831193704 91 205 5.0 10.0 0.00 0.00 0.00 56 1016.8
20260831193203 91 226 4.0 8.0 0.00 0.00 0.00 55 1016.9
20260831192705 91 248 4.0 7.0 0.00 0.00 0.00 56 1016.9
20260831192204 91 217 2.0 7.0 0.00 0.00 0.00 58 1016.8
20260831191703 91 244 2.0 5.0 0.00 0.00 0.00 59 1016.9
20260831190204 91 241 3.0 9.0 0.00 0.00 0.00 58 1017.1
20260831185704 91 240 2.0 7.0 0.00 0.00 0.00 58 1017.1
20260831184703 91 240 1.0 6.0 0.00 0.00 0.00 57 1017.3
20260831184204 91 227 2.0 6.0 0.00 0.00 0.00 57 1017.3
20260831183704 91 302 1.0 9.0 0.00 0.00 0.00 57 1017.4
20260831183204 91 216 5.0 9.0 0.00 0.00 0.00 57 1017.3
20260831182204 91 219 3.0 7.0 0.00 0.00 0.00 60 1017.3
20260831181703 90 257 2.0 6.0 0.00 0.00 0.00 60 1017.3
20260831181204 90 180 2.0 8.0 0.00 0.00 0.00 61 1017.4
20260831180704 90 288 1.0 3.0 0.00 0.00 0.00 60 1017.5
20260831180204 90 217 1.0 3.0 0.00 0.00 0.00 63 1017.6
20260831175204 90 232 2.0 6.0 0.00 0.00 0.00 62 1017.5
20260831174705 90 253 2.0 5.0 0.00 0.00 0.00 60 1017.6
20260831174204 90 259 2.0 6.0 0.00 0.00 0.00 63 1017.7
20260831173704 90 257 2.0 6.0 0.00 0.00 0.00 62 1017.7
20260831173204 90 211 2.0 6.0 0.00 0.00 0.00 62 1017.8
20260831172703 90 274 2.0 3.0 0.00 0.00 0.00 63 1017.8
20260831172204 90 266 1.0 3.0 0.00 0.00 0.00 63 1017.8
20260831171704 90 297 2.0 5.0 0.00 0.00 0.00 63 1017.8
20260831171204 90 219 5.0 9.0 0.00 0.00 0.00 64 1017.8
20260831170204 89 213 4.0 9.0 0.00 0.00 0.00 64 1017.8
20260831165704 89 294 3.0 9.0 0.00 0.00 0.00 64 1017.9
20260831164704 89 222 3.0 8.0 0.00 0.00 0.00 64 1018.0
20260831164204 89 210 5.0 12.0 0.00 0.00 0.00 63 1018.0
20260831163704 89 211 4.0 12.0 0.00 0.00 0.00 64 1018.1
20260831163203 89 202 3.0 7.0 0.00 0.00 0.00 64 1018.1
20260831162704 89 281 5.0 8.0 0.00 0.00 0.00 64 1018.1
20260831162204 89 239 3.0 7.0 0.00 0.00 0.00 65 1018.1
20260831161704 88 211 3.0 7.0 0.00 0.00 0.00 65 1018.1
20260831161203 88 212 3.0 8.0 0.00 0.00 0.00 65 1018.1
20260831160704 88 219 3.0 6.0 0.00 0.00 0.00 66 1018.1
20260831160204 87 241 3.0 7.0 0.00 0.00 0.00 68 1018.1
20260831155204 87 178 3.0 6.0 0.00 0.00 0.00 68 1018.0
20260831154704 86 211 2.0 7.0 0.00 0.00 0.00 69 1018.1
20260831154203 86 224 3.0 6.0 0.00 0.00 0.00 70 1018.0
20260831153705 85 181 2.0 8.0 0.00 0.00 0.00 69 1018.0
20260831153204 85 206 4.0 9.0 0.00 0.00 0.00 70 1018.0
20260831152703 85 232 5.0 10.0 0.00 0.00 0.00 69 1018.0
20260831152204 84 186 1.0 6.0 0.00 0.00 0.00 71 1017.9
20260831151705 84 206 4.0 7.0 0.00 0.00 0.00 71 1018.0
20260831151204 84 225 3.0 6.0 0.00 0.00 0.00 71 1018.0
20260831150705 84 206 3.0 8.0 0.00 0.00 0.00 71 1018.1
20260831150204 83 222 3.0 8.0 0.00 0.00 0.00 71 1018.1
20260831145703 83 227 4.0 9.0 0.00 0.00 0.00 72 1018.1
20260831145203 82 225 2.0 9.0 0.00 0.00 0.00 73 1018.1
20260831144704 82 242 3.0 7.0 0.00 0.00 0.00 75 1018.1
20260831144204 81 218 3.0 7.0 0.00 0.00 0.00 75 1018.1
20260831143704 81 228 2.0 5.0 0.00 0.00 0.00 76 1018.1
20260831143203 80 248 0.0 3.0 0.00 0.00 0.00 77 1018.0
20260831142203 80 120 2.0 5.0 0.00 0.00 0.00 77 1017.8
20260831141704 80 81 2.0 5.0 0.00 0.00 0.00 77 1017.8
20260831140704 79 44 0.0 1.0 0.00 0.00 0.00 77 1017.8
20260831140205 79 57 0.0 3.0 0.00 0.00 0.00 78 1017.9
20260831135704 79 63 1.0 5.0 0.00 0.00 0.00 78 1017.9
20260831135204 79 65 0.0 2.0 0.00 0.00 0.00 78 1017.8
20260831134204 79 40 0.0 2.0 0.00 0.00 0.00 78 1017.8
20260831133704 78 29 2.0 6.0 0.00 0.00 0.00 78 1017.8
20260831133203 78 29 2.0 5.0 0.00 0.00 0.00 78 1017.8
20260831132703 78 36 1.0 3.0 0.00 0.00 0.00 78 1017.9
20260831132204 78 33 0.0 0.0 0.00 0.00 0.00 79 1017.8
20260831131704 78 34 0.0 3.0 0.00 0.00 0.00 79 1017.7
20260831131203 78 35 1.0 3.0 0.00 0.00 0.00 79 1017.8
20260831130704 78 35 0.0 3.0 0.00 0.00 0.00 79 1017.7
20260831130203 77 56 1.0 3.0 0.00 0.00 0.00 79 1017.7
20260831125205 77 232 2.0 6.0 0.00 0.00 0.00 81 1017.6
20260831124703 76 213 1.0 5.0 0.00 0.00 0.00 81 1017.6
20260831124204 76 65 0.0 0.0 0.00 0.00 0.00 82 1017.6
20260831123705 76 47 0.0 0.0 0.00 0.00 0.00 82 1017.6
20260831123204 75 39 0.0 0.0 0.00 0.00 0.00 82 1017.5
20260831122203 75 34 0.0 0.0 0.00 0.00 0.00 82 1017.5
20260831121704 75 32 0.0 0.0 0.00 0.00 0.00 81 1017.5
20260831121204 75 33 0.0 0.0 0.00 0.00 0.00 81 1017.5
20260831120704 75 32 0.0 0.0 0.00 0.00 0.00 81 1017.5
20260831120205 75 34 0.0 0.0 0.00 0.00 0.00 81 1017.5
20260831115704 75 34 0.0 0.0 0.00 0.00 0.00 81 1017.5